This demonstration page uses our WeatherBlox Daily Observations layout. Learn more.

Left ArrowRight Arrow

34.16533, -84.80231

Hourly Observations for August 11, 2018

Temp ( °F °C ) Dew Point ( °F °C ) Humidity (%) Winds ( mph kmh ) Pressure ( in mb ) Visibility ( mi km ) Precip ( " mm )
12:53 am 00:53 Partly Cloudy 72 22.2 71 21.7 97 97 Calm 29.94 1014 10 16 0.00 0.00
1:14 am 01:14 Mostly Cloudy 73 22.8 71 21.7 94 94 Calm 29.97 1015 10 16 0.00 0.00
1:53 am 01:53 Partly Cloudy 72 22.2 71 21.7 97 97 Calm 29.93 1014 10 16 0.00 0.00
2:53 am 02:53 Clear 71 21.7 71 21.7 100 100 Calm 29.92 1013 10 16 0.00 0.00
3:53 am 03:53 Partly Cloudy 71 21.7 71 21.7 100 100 Calm 29.91 1013 8 13 0.00 0.00
4:03 am 04:03 Mostly Cloudy 71 21.7 71 21.7 100 100 Calm 29.94 1014 8 13 0.00 0.00
4:23 am 04:23 Partly Cloudy 71 21.7 71 21.7 100 100 Calm 29.97 1015 7 11 0.00 0.00
4:53 am 04:53 Partly Cloudy with Mist and Fog 70 21.1 70 21.1 100 100 Calm 29.91 1013 6 10 0.00 0.00
5:08 am 05:08 Mostly Cloudy with Mist and Fog 71 21.7 71 21.7 100 100 Calm 29.97 1015 6 10 0.00 0.00
5:53 am 05:53 Cloudy with Mist and Fog 72 22.2 72 22.2 100 100 Calm 29.92 1013 6 10 0.00 0.00
6:09 am 06:09 Cloudy with Mist and Fog 72 22.2 72 22.2 100 100 Calm 29.97 1015 6 10 0.00 0.00
6:53 am 06:53 Cloudy with Mist and Fog 72 22.2 72 22.2 100 100 Calm 29.94 1014 6 10 0.00 0.00
7:41 am 07:41 Cloudy with Mist and Fog 72 22.2 72 22.2 100 100 Calm 30.00 1016 6 10 0.00 0.00
7:53 am 07:53 Cloudy with Mist and Fog 72 22.2 72 22.2 100 100 Calm 29.96 1015 6 10 0.00 0.00
8:08 am 08:08 Cloudy with Mist and Fog 72 22.2 72 22.2 100 100 Calm 30.00 1016 6 10 0.00 0.00
8:19 am 08:19 Cloudy with Mist and Fog 72 22.2 72 22.2 100 100 Calm 30.00 1016 6 10 0.00 0.00
8:32 am 08:32 Cloudy 73 22.8 72 22.2 96 96 Calm 30.00 1016 7 11 0.00 0.00
8:51 am 08:51 Mostly Cloudy 73 23 72 22 94 94 Calm 30.00 1016 9 14 0.00 0.00
8:53 am 08:53 Mostly Cloudy 74 23.3 72 22.2 94 94 Calm 29.97 1015 9 14 0.00 0.00
9:02 am 09:02 Partly Cloudy 75 23.9 71 21.7 88 88 VRB 3 6 30.03 1017 10 16 0.00 0.00
9:46 am 09:46 Mostly Cloudy 78 25.6 72 22.2 82 82 Calm 30.00 1016 10 16 0.00 0.00
9:53 am 09:53 Mostly Cloudy 78 25.6 71 21.7 79 79 Calm 29.98 1015 10 16 0.00 0.00
10:39 am 10:39 Partly Cloudy 80 26.7 71 21.7 74 74 VRB 6 9 30.00 1016 10 16 0.00 0.00
10:53 am 10:53 Partly Cloudy 79 26.1 71 21.7 77 77 Calm 29.98 1015 10 16 0.00 0.00
11:53 am 11:53 Cloudy 80 26.7 71 21.7 74 74 VRB 5 7 29.99 1016 10 16 0.00 0.00
12:53 pm 12:53 Cloudy 83 28.3 71 21.7 67 67 VRB 5 7 29.98 1015 10 16 0.00 0.00
1:53 pm 13:53 Mostly Cloudy 85 29.4 70 21.1 61 61 N 9 15 29.98 1015 10 16 0.00 0.00
2:53 pm 14:53 Mostly Cloudy 86 30 71 21.7 61 61 VRB 6 9 29.96 1015 10 16 0.00 0.00
3:53 pm 15:53 Partly Cloudy 88 31.1 70 21.1 55 55 N 10 17 29.95 1014 10 16 0.00 0.00
4:53 pm 16:53 Mostly Cloudy 87 30.6 70 21.1 57 57 VRB 3 6 29.93 1014 10 16 0.00 0.00
5:53 pm 17:53 Sunny 86 30 69 20.6 57 57 VRB 5 7 29.92 1013 10 16 0.00 0.00
6:53 pm 18:53 Sunny 85 29.4 69 20.6 59 59 VRB 3 6 29.93 1014 10 16 0.00 0.00
7:53 pm 19:53 Sunny 80 26.7 71 21.7 74 74 Calm 29.93 1014 10 16 0.00 0.00
8:53 pm 20:53 Clear 74 23.3 72 22.2 94 94 Calm 29.95 1014 10 16 0.00 0.00
9:53 pm 21:53 Clear 74 23.3 72 22.2 94 94 Calm 29.96 1015 10 16 0.00 0.00
10:53 pm 22:53 Clear 73 22.8 72 22.2 96 96 Calm 29.98 1015 10 16 0.00 0.00
11:53 pm 23:53 Clear 72 22.2 71 21.7 97 97 Calm 29.98 1015 10 16 0.00 0.00

Powered by AerisWeather